Location: Doverdale
(52.2833°N, 2.2000°W)
Time: 03:14:36
(UTC+00:00)

Cosmos 2315 Rocket - Pass Details

Date: 29 October 2020
Orbit: 966 x 1002 km, 82.9° (Epoch: 24 November)

Event Time Altitude Azimuth Distance (km) Brightness Sun altitude
Rises 19:03:22 0° 177° (S) 3,650 6.9 -21.7°
Reaches altitude 10° 19:05:52 10° 174° (S) 2,705 6.2 -22.1°
Maximum altitude 19:11:59 64° 94° (E) 1,065 3.9 -23.0°
Drops below altitude 10° 19:18:07 10° 15° (NNE) 2,721 6.3 -23.9°
Sets 19:20:39 0° 13° (NNE) 3,674 7.0 -24.3°
